TimeEST,TemperatureF,Dew PointF,Humidity,Sea Level PressureIn,VisibilityMPH,Wind Direction,Wind SpeedMPH,Gust SpeedMPH,PrecipitationIn,Events,Conditions,WindDirDegrees,DateUTC
12:56 AM,54.0,50.0,86,30.23,10.0,Calm,Calm,-,N/A,,Clear,0,2013-11-10 05:56:00
1:56 AM,53.1,50.0,89,30.22,10.0,Calm,Calm,-,N/A,,Clear,0,2013-11-10 06:56:00
2:56 AM,54.0,50.0,86,30.22,10.0,Calm,Calm,-,N/A,,Clear,0,2013-11-10 07:56:00
3:56 AM,54.0,51.1,90,30.21,10.0,Calm,Calm,-,N/A,,Clear,0,2013-11-10 08:56:00
4:56 AM,55.0,52.0,89,30.21,10.0,North,3.5,-,N/A,,Clear,350,2013-11-10 09:56:00
5:56 AM,55.9,51.1,84,30.22,10.0,NNW,3.5,-,N/A,,Partly Cloudy,340,2013-11-10 10:56:00
6:56 AM,55.9,51.1,84,30.23,10.0,Calm,Calm,-,N/A,,Clear,0,2013-11-10 11:56:00
7:56 AM,57.0,52.0,83,30.24,10.0,Calm,Calm,-,N/A,,Clear,0,2013-11-10 12:56:00
8:56 AM,60.1,53.1,78,30.27,10.0,NNW,3.5,-,N/A,,Clear,330,2013-11-10 13:56:00
9:56 AM,61.0,52.0,72,30.26,10.0,North,4.6,-,N/A,,Clear,350,2013-11-10 14:56:00
10:56 AM,64.9,52.0,63,30.26,10.0,NNW,6.9,-,N/A,,Clear,330,2013-11-10 15:56:00
11:56 AM,70.0,51.1,51,30.23,10.0,North,8.1,-,N/A,,Clear,350,2013-11-10 16:56:00
12:56 PM,70.0,46.9,44,30.19,10.0,NNW,8.1,-,N/A,,Mostly Cloudy,330,2013-11-10 17:56:00
1:56 PM,70.0,46.0,42,30.18,10.0,NNW,9.2,-,N/A,,Partly Cloudy,330,2013-11-10 18:56:00
2:56 PM,70.0,46.9,44,30.16,10.0,WNW,4.6,-,N/A,,Overcast,300,2013-11-10 19:56:00
3:56 PM,70.0,46.0,42,30.17,10.0,WNW,4.6,-,N/A,,Clear,300,2013-11-10 20:56:00
4:56 PM,68.0,48.0,49,30.17,10.0,Calm,Calm,-,N/A,,Partly Cloudy,0,2013-11-10 21:56:00
5:56 PM,61.0,53.1,75,30.17,10.0,Calm,Calm,-,N/A,,Clear,0,2013-11-10 22:56:00
6:56 PM,57.0,53.1,87,30.18,10.0,Calm,Calm,-,N/A,,Clear,0,2013-11-10 23:56:00
7:56 PM,55.0,52.0,89,30.19,10.0,Calm,Calm,-,N/A,,Clear,0,2013-11-11 00:56:00
8:56 PM,53.1,48.0,83,30.19,10.0,SW,3.5,-,N/A,,Clear,230,2013-11-11 01:56:00
9:56 PM,54.0,50.0,86,30.20,10.0,Calm,Calm,-,N/A,,Clear,0,2013-11-11 02:56:00
10:56 PM,52.0,48.0,86,30.19,10.0,WSW,4.6,-,N/A,,Clear,240,2013-11-11 03:56:00
11:56 PM,50.0,48.0,93,30.19,10.0,Calm,Calm,-,N/A,,Clear,0,2013-11-11 04:56:00